K1IMD Mattituck NY US current weather conditions

sailwx.info

Wind from 197 at 1 knots gusting 3

Air temperature 5.0° C
Dewpoint -5.4° C

Last reported at 2019-Dec-08 14:56 UTC.
Time now 2019-Dec-08 15:31 UTC

Location: N 40°59' W 072°30'.
View on Google Maps.

See reports from other nearby stations

  
Tides and Currents Weather Stations Pressure Air Temp Water Temp Dewpoint Dewpoint Depression Visibility Wind Speed Wind Dir Waves Ship Positions
date/time (UTC)wind fromknots sea level pressurealtimeterstation pressurevisibilityair tempwater tempwave heightnotes
2019-Dec-08 14:56 197 1 gusting 3 5.0
2019-Dec-08 14:41 208 4.4
2019-Dec-08 14:26 197 2 gusting 0 5.6
2019-Dec-08 14:11 128 0 gusting 0 7.2
2019-Dec-08 13:56 097 1 gusting 1 6.7
2019-Dec-08 13:41 129 1 gusting 1 6.7
2019-Dec-08 13:26 073 0 5.6
2019-Dec-08 13:11 316 0.6
2019-Dec-08 12:56 316 -3.3
2019-Dec-08 12:41 316 -3.9
2019-Dec-08 12:26 316 -4.4
2019-Dec-08 12:11 316 -4.4
2019-Dec-08 11:56 316 -4.4
2019-Dec-08 11:41 316 -4.4
2019-Dec-08 11:26 316 -4.4
2019-Dec-08 11:11 302 -4.4
2019-Dec-08 10:56 302 -4.4
2019-Dec-08 10:41 306 0 gusting 0 -3.9
2019-Dec-08 10:26 341 -3.9
2019-Dec-08 10:11 341 -3.9
2019-Dec-08 09:56 341 -3.3
2019-Dec-08 09:41 341 -3.3
2019-Dec-08 09:26 341 -2.8
2019-Dec-08 09:11 028 -2.8
2019-Dec-08 08:56 310 0 gusting 0 -2.8
2019-Dec-08 08:41 358 2 gusting 3 -2.8
2019-Dec-08 08:26 343 0 gusting 3 -2.8
2019-Dec-08 08:11 306 0 gusting 3 -2.8
2019-Dec-08 07:56 004 4 gusting 1 -2.8
2019-Dec-08 07:41 012 2 gusting 1 -2.8
2019-Dec-08 07:26 360 3 gusting 1 -2.8
2019-Dec-08 07:11 337 3 gusting 0 -2.8
2019-Dec-08 06:56 015 3 gusting 0 -2.8
2019-Dec-08 06:41 029 0 gusting 1 -2.8
2019-Dec-08 06:26 296 1 gusting 1 -2.8
2019-Dec-08 06:11 345 0 gusting 1 -2.2
2019-Dec-08 05:56 035 1 gusting 1 -2.2
2019-Dec-08 05:41 350 1 -2.2
2019-Dec-08 05:26 347 -2.2
2019-Dec-08 05:11 299 0 gusting 0 -1.7
2019-Dec-08 04:56 002 0 gusting 1 -1.7
2019-Dec-08 04:41 328 1 gusting 1 -1.7
2019-Dec-08 04:26 314 2 gusting 5 -1.7
2019-Dec-08 04:11 360 5 gusting 7 -1.1
2019-Dec-08 03:56 271 1 gusting 3 -1.1
2019-Dec-08 03:41 015 1 gusting 5 -1.1
2019-Dec-08 03:26 014 3 gusting 3 -1.1
2019-Dec-08 03:11 358 1 gusting 1 -0.6
2019-Dec-08 02:56 001 6 gusting 4 -1.1
2019-Dec-08 02:41 004 3 gusting 1 -0.6
2019-Dec-08 02:26 337 3 gusting 1 -0.0
2019-Dec-08 02:11 002 7 gusting 6 -0.6
2019-Dec-08 01:56 007 2 gusting 1 -0.0
2019-Dec-08 01:41 282 0 gusting 3 -0.0
2019-Dec-08 01:26 310 0 gusting 2 -0.0
2019-Dec-08 01:11 302 1 gusting 0 -0.0
2019-Dec-08 00:56 005 3 gusting 1 -0.0
2019-Dec-08 00:41 360 6 gusting 1 0.6
2019-Dec-08 00:26 338 0 gusting 3 0.6
2019-Dec-08 00:11 300 0.6
2019-Dec-07 23:56 360 3 gusting 0 1.1
2019-Dec-07 23:41 340 1 gusting 0 1.1
2019-Dec-07 23:26 338 1.1
2019-Dec-07 23:11 304 2 gusting 1 1.1
2019-Dec-07 22:56 310 1 gusting 1 1.1
2019-Dec-07 22:41 283 1 gusting 1 1.1
2019-Dec-07 22:26 351 1 gusting 1 1.1
2019-Dec-07 22:11 002 1.1
2019-Dec-07 21:56 262 1.7
2019-Dec-07 21:41 289 1.1
2019-Dec-07 21:26 343 1 gusting 0 1.7
2019-Dec-07 21:11 306 1 gusting 1 2.2
2019-Dec-07 20:56 288 2 gusting 5 2.2
2019-Dec-07 20:41 271 2 gusting 3 3.9
2019-Dec-07 20:26 008 1 gusting 1 5.6
2019-Dec-07 20:11 321 3 gusting 3 7.8
2019-Dec-07 19:56 009 4 gusting 2 8.9
2019-Dec-07 19:41 355 7.2
2019-Dec-07 19:26 321 3 gusting 4 7.8
2019-Dec-07 19:11 334 6 gusting 6 8.3
2019-Dec-07 18:56 360 3 gusting 3 7.8
2019-Dec-07 18:41 286 3 gusting 5 7.2
2019-Dec-07 18:26 336 3 gusting 2 7.8
2019-Dec-07 18:11 360 3 gusting 3 8.3
2019-Dec-07 17:56 285 3 gusting 4 7.2
2019-Dec-07 17:41 324 5 gusting 4 8.3
2019-Dec-07 17:26 302 6 gusting 2 7.2
2019-Dec-07 17:11 002 6 gusting 5 6.1
2019-Dec-07 16:56 019 5 gusting 3 6.1
2019-Dec-07 16:41 022 12 gusting 3 5.6
2019-Dec-07 16:26 336 3 gusting 5 5.6
2019-Dec-07 16:11 327 6 gusting 4 7.2
2019-Dec-07 15:56 360 9 gusting 6 8.3
2019-Dec-07 15:41 302 5 gusting 5 8.9
2019-Dec-07 15:26 306 3 gusting 3 8.9
2019-Dec-07 15:11 279 5 gusting 3 7.8
2019-Dec-07 14:56 358 3 gusting 4 6.7
2019-Dec-07 14:41 293 6 gusting 4 5.6
2019-Dec-07 14:26 333 6 gusting 4 5.0
2019-Dec-07 14:11 115 0 gusting 1 6.1
2019-Dec-07 13:56 014 4 gusting 4 4.4
2019-Dec-07 13:41 296 3 gusting 3 3.9
2019-Dec-07 13:26 328 3 gusting 2 3.9
2019-Dec-07 13:11 360 3 gusting 2 1.7
2019-Dec-07 12:56 032 0 gusting 1 1.1
2019-Dec-07 12:41 304 2 gusting 3 0.6
2019-Dec-07 12:26 354 5 gusting 2 0.6
2019-Dec-07 12:11 302 2 gusting 4 -0.0
2019-Dec-07 11:56 303 5 gusting 3 0.6
2019-Dec-07 11:41 026 5 gusting 3 0.6
2019-Dec-07 11:26 324 4 gusting 4 0.6
2019-Dec-07 11:11 262 3 gusting 3 0.6
2019-Dec-07 10:56 288 0 gusting 1 -0.0
2019-Dec-07 10:41 309 0 gusting 0 -0.0
2019-Dec-07 10:26 012 0 gusting 3 0.6
2019-Dec-07 10:11 031 2 gusting 3 0.6
2019-Dec-07 09:56 303 0 gusting 4 0.6
2019-Dec-07 09:41 336 3 gusting 3 1.1
2019-Dec-07 09:26 264 3 gusting 6 1.1
2019-Dec-07 09:11 314 3 gusting 3 1.1
2019-Dec-07 08:56 321 3 gusting 4 1.7
2019-Dec-07 08:41 343 5 gusting 6 1.7
2019-Dec-07 08:26 290 6 gusting 3 1.7
2019-Dec-07 08:11 321 5 gusting 5 1.7
2019-Dec-07 07:56 271 4 gusting 1 1.7
2019-Dec-07 07:41 317 1 gusting 3 1.7
2019-Dec-07 07:26 338 3 gusting 4 1.7
2019-Dec-07 07:11 344 3 gusting 3 2.2
2019-Dec-07 06:56 304 6 gusting 5 2.2
2019-Dec-07 06:41 317 5 gusting 3 2.2
2019-Dec-07 06:26 302 2 gusting 3 2.2
2019-Dec-07 06:11 290 2 gusting 2 2.2
2019-Dec-07 05:56 272 3 gusting 5 2.8
2019-Dec-07 05:41 002 7 gusting 3 2.8
2019-Dec-07 05:26 330 6 gusting 2 3.3
2019-Dec-07 05:11 299 5 gusting 3 3.3
2019-Dec-07 04:56 306 3 gusting 5 3.9
2019-Dec-07 04:41 310 4 gusting 7 3.9
2019-Dec-07 04:26 327 7 gusting 6 3.9
2019-Dec-07 04:11 046 13 gusting 6 4.4
2019-Dec-07 03:56 324 3 gusting 6 5.0
2019-Dec-07 03:41 338 6 gusting 3 5.6
2019-Dec-07 03:26 015 5 gusting 6 6.1
2019-Dec-07 03:11 310 2 gusting 5 6.7
2019-Dec-07 02:56 314 6 gusting 7 6.7
2019-Dec-07 02:41 254 9 gusting 5 7.8
2019-Dec-07 02:26 255 6 gusting 7 7.8
2019-Dec-07 02:11 285 7 gusting 7 8.3
2019-Dec-07 01:56 261 5 gusting 7 8.9
2019-Dec-07 01:41 290 3 gusting 9 8.9
2019-Dec-07 01:26 261 14 gusting 6 9.4
2019-Dec-07 01:11 297 4 gusting 12 9.4
2019-Dec-07 00:56 216 5 gusting 9 9.4
2019-Dec-07 00:41 306 7 gusting 3 9.4
2019-Dec-07 00:26 261 5 gusting 6 9.4
2019-Dec-07 00:11 273 6 gusting 7 9.4
2019-Dec-06 23:56 268 6 gusting 5 9.4
2019-Dec-06 23:41 240 5 gusting 5 10.0
2019-Dec-06 23:26 197 4 gusting 5 10.0
2019-Dec-06 23:11 218 7 gusting 4 9.4
2019-Dec-06 22:56 238 7 gusting 5 8.9
2019-Dec-06 22:41 227 5 gusting 5 8.9
2019-Dec-06 22:26 200 7 gusting 6 8.9
2019-Dec-06 22:11 213 6 gusting 5 8.9
2019-Dec-06 21:56 204 6 gusting 6 8.9
2019-Dec-06 21:41 223 6 gusting 6 8.9
2019-Dec-06 21:26 207 5 gusting 5 8.9
2019-Dec-06 21:11 228 4 gusting 5 8.9
2019-Dec-06 20:56 199 6 gusting 5 8.9
2019-Dec-06 20:41 213 5 gusting 6 8.9
2019-Dec-06 20:26 230 7 gusting 7 8.9
2019-Dec-06 20:11 197 7 gusting 5 8.9
2019-Dec-06 19:56 225 7 gusting 5 8.9
2019-Dec-06 19:41 200 11 gusting 5 8.3
2019-Dec-06 19:26 207 6 gusting 6 8.3
2019-Dec-06 19:11 220 8 gusting 5 8.3
2019-Dec-06 18:56 252 3 gusting 6 8.3
2019-Dec-06 18:41 218 6 gusting 5 7.8
2019-Dec-06 18:26 218 5 gusting 6 8.3
2019-Dec-06 18:11 183 3 gusting 4 7.8
2019-Dec-06 17:56 206 7 gusting 6 7.8
2019-Dec-06 17:41 203 2 gusting 3 7.8
2019-Dec-06 17:26 206 4 gusting 4 7.8
2019-Dec-06 17:11 206 4 gusting 3 7.8
2019-Dec-06 16:56 220 5 gusting 3 7.8
2019-Dec-06 16:41 207 4 gusting 5 7.8
2019-Dec-06 16:26 186 4 gusting 1 7.2
2019-Dec-06 16:11 192 3 gusting 3 7.8
2019-Dec-06 15:56 193 3 gusting 3 7.8
2019-Dec-06 15:41 231 2 gusting 3 8.3
2019-Dec-06 15:26 271 1 gusting 3 8.9
2019-Dec-06 15:11 197 5 gusting 5 8.9